Regional Weather Roundup
Issued by NWS

Home | Current Version | Previous Version | Graphics & Text | Print | Product List | Glossary On
Versions: 1 2 3 4 5 6 7 8 9 10 11 12 13 14 15 16 17 18 19 20 21 22 23 24 25 26 27 28 29 30 31 32 33 34 35 36 37 38 39 40 41 42 43 44 45 46 47 48 49 50
000
ASUS43 KIND 271909
RWRIN

WEATHER ROUNDUP FOR INDIANA
NATIONAL WEATHER SERVICE INDIANAPOLIS IN
300 PM EDT SAT AUG 27 2016

NOTE: "FAIR" INDICATES FEW OR NO CLOUDS BELOW 12,000 FEET WITH NO
SIGNIFICANT WEATHER AND/OR OBSTRUCTIONS TO VISIBILITY.

* - STATION DOES NOT REPORT WEATHER SUCH AS PRECIPITATION OR FOG.

+ - STATION NOT QUALITY CONTROLLED BY THE NATIONAL WEATHER SERVICE.
    USE DATA WITH CAUTION...ESPECIALLY DEWPOINT AND RELATIVE
    HUMIDITY OBSERVATIONS.

INZ001>003-010>013-019-020-272000-
NORTHWEST INDIANA

CITY           SKY/WX    TMP DP  RH WIND       PRES   REMARKS
GARY /AIRPORT/ PTSUNNY   84  72  65 SE7       30.04F
KNOX *+        PTSUNNY   81  52  36 S7        30.06S
LA PORTE +     PTSUNNY   81  77  86 S6        30.07F
MICHIGAN CITY+ MOSUNNY   81  72  74 MISG      30.06S
MONTICELLO +   PTSUNNY   81  69  65 SE5       30.06F
RENSSELAER +   MOSUNNY   82  73  74 S9        30.06S
VALPARAISO     CLOUDY    82  71  69 SW9       30.06S

$$

LMZ046-743>745-272000-
SOUTHERN LAKE MICHIGAN

STATION/POSITION TIME  TEMP    WIND        PRES    WAVE
                       AIR SEA DIR/SP/G            HT
                 (UTC) (F)     (DEG/KT/KT) (MB)    (FT)
BURNS HARBOR     1809   80     190/  9/ 16 1017.6F
MICHIGAN CITY    1800   78     140/ 11/ 15   N/A
5NW MICH CITY    1800   77 75  170/ 10/ 12   N/A     1

$$

INZ004-005-014>016-021>024-272000-
NORTH CENTRAL INDIANA

CITY           SKY/WX    TMP DP  RH WIND       PRES   REMARKS
ELKHART        CLOUDY    79  72  78 SE7       30.07F
GOSHEN         PTSUNNY   79  70  74 S6        30.08S
LOGANSPORT +   MOSUNNY   81  70  69 SW7       30.09S
PERU/GRISSOM   CLOUDY    82  74  76 SE10      30.08S
ROCHESTER +    CLOUDY    82  73  74 S6        30.08F
SOUTH BEND     PTSUNNY   79  72  79 SW9       30.07F
WARSAW +       PTSUNNY   79  73  83 SW5       30.09R

$$

INZ006>009-017-018-025>027-272000-
NORTHEAST INDIANA

CITY           SKY/WX    TMP DP  RH WIND       PRES   REMARKS
ANGOLA *+      MOSUNNY   75  72  88 SE6       30.09F
AUBURN +       PTSUNNY   81  68  65 CALM      30.10F
FORT WAYNE     CLOUDY    80  70  71 S8        30.10F
HUNTINGTON +   CLOUDY    78  71  77 S6        30.09F

$$

INZ028-029-035-036-043>045-051>053-272000-
WEST CENTRAL INDIANA

CITY           SKY/WX    TMP DP  RH WIND       PRES   REMARKS
CRAWFORDSVL +  MOSUNNY   81  74  79 S9        30.09S
GREENCASTLE +  CLOUDY    79  73  83 CALM      30.11S
LAFAYETTE      MOSUNNY   82  71  69 S8        30.07S
TERRE HAUTE    SUNNY     85  70  60 S9        30.08F

$$

INZ030>032-037>040-046>048-054>057-064-065-272000-
CENTRAL INDIANA

CITY           SKY/WX    TMP DP  RH WIND       PRES   REMARKS
ANDERSON       PTSUNNY   73  73 100 S6        30.11F
COLUMBUS       MOSUNNY   79  75  89 E5        30.11F
INDIANAPOLIS   CLOUDY    76  71  85 SE8       30.11R
-EAGLE CREEK   CLOUDY    78  71  79 SE7       30.10S
KOKOMO *+      CLOUDY    79  73  83 S9        30.09F
MARION +       CLOUDY    76  71  83 S7        30.10F
MT COMFORT *+  CLOUDY    73  72  94 S3        30.11F
SHELBYVILLE    CLOUDY    77  72  84 SE6       30.10F
ZIONSVILLE +   CLOUDY    76  71  86 SE6       30.11F

$$

INZ033-034-041-042-049-050-058-059-272000-
EAST CENTRAL INDIANA

CITY           SKY/WX    TMP DP  RH WIND       PRES   REMARKS
MUNCIE         LGT RAIN  76  73  91 CALM      30.11F FOG

$$

INZ060-061-067>069-081>083-085>088-272000-
SOUTHWEST INDIANA

CITY           SKY/WX    TMP DP  RH WIND       PRES   REMARKS
EVANSVILLE     MOSUNNY   87  72  60 SE8       30.08F
HUNTINGBURG *+ MOSUNNY   88  70  55 E5        30.08F
WASHINGTON +   SUNNY     84  73  69 MISG      30.07F

$$

INZ062-063-066-070>080-084-089>092-272000-
SOUTH CENTRAL AND SOUTHEAST INDIANA

CITY           SKY/WX    TMP DP  RH WIND       PRES   REMARKS
BLOOMINGTON    SUNNY     82  70  66 SE3       30.10F
MADISON *+     MOSUNNY   81  70  69 NE8       30.14F

$$




USA.gov is the U.S. government's official web portal to all federal, state and local government web resources and services.